Charlottetown, Prince Edward Island

4:15 PM ADT on July 28, 2016 (GMT -0300)
Charlottetown

Weather History for CYYG - March, 2013

Change the Weather History Date:

Wednesday, March 20, 2013

  Actual Average Record
Temperature  
Mean Temperature 26 °F -  
Max Temperature 35 °F 40 °F 55 °F (2012)
Min Temperature 17 °F 26 °F -29 °F (2008)
Degree Days  
Heating Degree Days 39    
Moisture  
Dew Point 23 °F    
Average Humidity 88    
Maximum Humidity 100    
Minimum Humidity 68    
Precipitation  
Precipitation 0.08 in 0.12 in - ()
Sea Level Pressure  
Sea Level Pressure 29.52 in    
Wind  
Wind Speed 16 mph ()    
Max Wind Speed 30 mph    
Max Gust Speed 40 mph    
Visibility 7.6 miles    
Events Snow    
Averages and records for this station are not official NWS values.
T = Trace of Precipitation, MM = Missing Value Source: Averaged Metar Reports

Daily Weather History Graph

Daily Weather History Graph

Search for Another Location

Airport or City:

Trip Planner

Search our weather history database for the weather conditions in past years. The results will help you decide how hot, cold, wet, or windy it might be!

Date:

Astronomy

Mar. 20, 2013 Rise Set
Actual Time 7:15 AM ADT 7:25 PM ADT
Civil Twilight 6:45 AM ADT 7:55 PM ADT
Nautical Twilight 6:10 AM ADT 8:30 PM ADT
Astronomical Twilight 5:33 AM ADT 9:07 PM ADT
Moon 12:38 PM ADT (3/20) 3:10 AM ADT (3/20)
Length of Visible Light 13h 10m
Length of Day
12h 10m
First Quarter, 59% of the Moon is Illuminated
Mar 20
First Quarter
Mar 27
Full
Apr 3
Last Quarter
Apr 10
New
Apr 18
First Quarter

Hourly Weather History & Observations

Time (ADT) Temp. Windchill Dew Point Humidity Pressure Visibility Wind Dir Wind Speed Gust Speed Precip Events Conditions
12:00 AM 17.6 °F 5.0 °F 14.0 °F 86% 29.99 in 15.0 mi ENE 11.5 mph - N/A   Overcast
1:00 AM 19.4 °F 8.6 °F 15.8 °F 86% 29.95 in 15.0 mi East 9.2 mph 17.3 mph N/A   Overcast
2:00 AM 19.4 °F 7.2 °F 17.6 °F 93% 29.90 in 15.0 mi ENE 11.5 mph 18.4 mph N/A   Overcast
3:00 AM 21 °F - 18 °F 83% 29.86 in 15 mi ENE 13.8 mph - -   Overcast
3:00 AM 21.2 °F 8.3 °F 17.6 °F 86% 29.86 in 15.0 mi East 13.8 mph 20.7 mph N/A   Overcast
4:00 AM 21.2 °F 7.3 °F 17.6 °F 86% 29.78 in 15.0 mi ENE 16.1 mph 24.2 mph N/A   Overcast
4:31 AM 21.2 °F 6.8 °F 17.6 °F 86% 29.75 in 12.0 mi East 17.3 mph - N/A Snow Light Snow
5:00 AM 21.2 °F 7.3 °F 17.6 °F 86% 29.73 in 15.0 mi East 16.1 mph 24.2 mph N/A Snow Light Snow
5:29 AM 23.0 °F 8.7 °F 19.4 °F 86% 29.70 in 5.0 mi ENE 18.4 mph 24.2 mph N/A Snow Light Snow
6:00 AM 23.0 °F 11.7 °F 19.4 °F 86% 29.69 in 4.0 mi ENE 11.5 mph - N/A Snow Light Snow
6:30 AM 23.0 °F 10.1 °F 19.4 °F 86% 29.66 in 2.0 mi East 15.0 mph - N/A Snow Light Snow
6:42 AM 23.0 °F 11.1 °F 19.4 °F 86% 29.65 in 1.0 mi East 12.7 mph 21.9 mph N/A Snow Light Snow
7:00 AM 21.2 °F 7.3 °F 19.4 °F 93% 29.64 in 0.6 mi ENE 16.1 mph - N/A Snow Light Snow
7:13 AM 23.0 °F 9.6 °F 21.2 °F 93% 29.63 in 0.6 mi ENE 16.1 mph 24.2 mph N/A Snow Light Snow
7:44 AM 23.0 °F 9.2 °F 21.2 °F 93% 29.59 in 0.4 mi ENE 17.3 mph - N/A Snow Snow
8:00 AM 23.0 °F 8.3 °F 21.2 °F 93% 29.57 in 0.2 mi ENE 19.6 mph - N/A Snow Heavy Snow
8:41 AM 24.8 °F 11.1 °F 23.0 °F 93% 29.51 in 0.1 mi ENE 18.4 mph - N/A Snow Heavy Snow
9:00 AM 24.8 °F 9.0 °F 24.8 °F 100% 29.49 in 0.1 mi ENE 25.3 mph 36.8 mph N/A Snow Heavy Snow
9:10 AM 24.8 °F 9.3 °F 24.8 °F 100% 29.48 in 0.4 mi ENE 24.2 mph 34.5 mph N/A Snow Snow
9:30 AM 26.6 °F 12.7 °F 24.8 °F 93% 29.49 in 0.5 mi East 20.7 mph 27.6 mph N/A Snow Snow
9:43 AM 26.6 °F 12.7 °F 24.8 °F 93% 29.47 in 1.0 mi East 20.7 mph 28.8 mph N/A Snow Light Snow
10:00 AM 26.6 °F 13.1 °F 24.8 °F 93% 29.47 in 1.5 mi East 19.6 mph 27.6 mph N/A Snow Light Snow
10:32 AM 28.4 °F 14.4 °F 24.8 °F 86% 29.44 in 2.0 mi East 23.0 mph 29.9 mph N/A Snow Light Snow
11:00 AM 28.4 °F 13.8 °F 26.6 °F 93% 29.41 in 2.5 mi East 25.3 mph 35.7 mph N/A Snow Light Snow
11:32 AM 30.2 °F 15.9 °F 28.4 °F 93% 29.37 in 4.0 mi East 26.5 mph 35.7 mph N/A Snow Light Snow
12:00 PM 32.0 °F 19.2 °F 28.4 °F 87% 29.34 in 12.0 mi East 23.0 mph 35.7 mph N/A Snow Light Snow
12:16 PM 32.0 °F 18.1 °F 28.4 °F 87% 29.32 in 15.0 mi ESE 27.6 mph 38.0 mph N/A Snow Low Drifting Snow
1:00 PM 33.8 °F 20.1 °F 30.2 °F 87% 29.29 in 8.0 mi ESE 29.9 mph 39.1 mph N/A   Overcast
1:27 PM 33.8 °F 22.2 °F 30.2 °F 87% 29.27 in 6.0 mi ESE 20.7 mph 28.8 mph N/A Snow Light Snow Showers
2:00 PM 33.8 °F 23.5 °F 32.0 °F 93% 29.25 in 3.0 mi SE 16.1 mph 23.0 mph N/A Snow Light Snow Showers
2:22 PM 33.8 °F 24.8 °F 32.0 °F 93% 29.24 in 2.0 mi SE 12.7 mph 20.7 mph N/A Snow Light Snow Showers
2:38 PM 33.8 °F 23.5 °F 32.0 °F 93% 29.23 in 1.0 mi SSE 16.1 mph 21.9 mph N/A Snow Light Snow Showers
3:00 PM 34 °F - 33 °F 96% 29.23 in 7 mi SSE 18.4 mph - - Snow Light Snow Showers
3:00 PM 33.8 °F 22.5 °F 33.8 °F 100% 29.23 in 8.0 mi SSE 19.6 mph 26.5 mph N/A Snow Light Snow Showers
3:47 PM 32.0 °F 18.1 °F 30.2 °F 93% 29.26 in 15.0 mi SW 27.6 mph 39.1 mph N/A Snow Light Snow Showers
4:00 PM 33.8 °F 21.9 °F 28.4 °F 81% 29.28 in 15.0 mi SW 21.9 mph 35.7 mph N/A   Scattered Clouds
5:00 PM 30.2 °F 16.5 °F 24.8 °F 80% 29.35 in 12.0 mi SSW 24.2 mph 36.8 mph N/A Snow Light Snow Showers
5:33 PM 28.4 °F 14.1 °F 24.8 °F 86% 29.38 in 2.5 mi SSW 24.2 mph 36.8 mph N/A Snow Light Snow Showers
6:00 PM 28.4 °F 15.1 °F 24.8 °F 86% 29.40 in 10.0 mi SSW 20.7 mph 40.3 mph N/A Snow Light Snow Showers
7:00 PM 28.4 °F 15.4 °F 21.2 °F 74% 29.44 in 15.0 mi SSW 19.6 mph 34.5 mph N/A   Mostly Cloudy
8:00 PM 26.6 °F 12.7 °F 17.6 °F 69% 29.47 in 15.0 mi SSW 20.7 mph 34.5 mph N/A   Scattered Clouds
9:00 PM 26 °F - 20 °F 68% 29.52 in 15 mi SSW 20.7 mph - -   Partly Cloudy
10:00 PM 26.6 °F 12.7 °F 19.4 °F 74% 29.55 in 15.0 mi SSW 20.7 mph 28.8 mph N/A   Scattered Clouds
11:00 PM 26.6 °F 12.0 °F 17.6 °F 69% 29.57 in 15.0 mi SSW 23.0 mph 31.1 mph N/A   Scattered Clouds